This demonstration page uses our WeatherBlox Daily Observations layout. Learn more.

Left ArrowRight Arrow

Hourly Observations for April 20, 2015

Temp ( °F °C ) Dew Point ( °F °C ) Humidity (%) Winds ( mph kmh ) Pressure ( in mb ) Visibility ( mi km ) Precip ( " mm )
12:51 am 00:51 Clear 56 13.3 19 -7.2 24 24 ENE 3 6 29.79 1009 10 16 N/A
1:51 am 01:51 Clear 53 11.7 19 -7.2 26 26 ESE 7 11 29.78 1008 10 16 N/A
2:51 am 02:51 Clear 54 12.2 21 -6.1 28 28 SSE 5 7 29.78 1008 10 16 N/A
3:51 am 03:51 Clear 51 10.6 21 -6.1 31 31 SSE 3 6 29.78 1008 10 16 N/A
4:51 am 04:51 Clear 48 8.9 22 -5.6 36 36 SSE 3 6 29.78 1009 10 16 N/A
5:51 am 05:51 Sunny 49 9.4 23 -5 36 36 SW 3 6 29.80 1009 10 16 N/A
6:51 am 06:51 Sunny 52 11.1 24 -4.4 34 34 N 5 7 29.83 1010 10 16 N/A
7:51 am 07:51 Sunny 64 17.8 25 -3.9 23 23 VRB 5 7 29.83 1010 10 16 N/A
8:51 am 08:51 Sunny 69 20.6 26 -3.3 20 20 N N/A 29.82 1010 10 16 N/A
9:51 am 09:51 Sunny 74 23.3 26 -3.3 17 17 N N/A 29.81 1010 10 16 N/A
10:51 am 10:51 Sunny 78 25.6 25 -3.9 14 14 VRB 5 7 29.79 1009 10 16 N/A
11:51 am 11:51 Sunny 79 26.1 25 -3.9 14 14 N N/A 29.75 1008 10 16 N/A
12:51 pm 12:51 Sunny 83 28.3 22 -5.6 10 10 N N/A 29.72 1007 10 16 N/A
1:51 pm 13:51 Sunny 85 29.4 22 -5.6 10 10 WNW 9 15 29.70 1006 10 16 N/A
2:51 pm 14:51 Sunny 85 29.4 21 -6.1 9 9 VRB 7 11 29.67 1005 10 16 N/A
3:51 pm 15:51 Sunny 84 28.9 21 -6.1 10 10 WNW 5 7 29.65 1004 10 16 N/A
4:51 pm 16:51 Sunny 83 28.3 19 -7.2 9 9 WNW 8 13 29.65 1004 10 16 N/A
5:51 pm 17:51 Sunny 81 27.2 19 -7.2 10 10 WNW 12 19 29.65 1004 10 16 N/A
6:51 pm 18:51 Sunny 78 25.6 19 -7.2 11 11 WNW 6 9 29.66 1004 10 16 N/A
7:51 pm 19:51 Clear 72 22.2 19 -7.2 13 13 NW 3 6 29.67 1005 10 16 N/A
8:51 pm 20:51 Clear 68 20 21 -6.1 17 17 WNW 9 15 29.70 1006 10 16 N/A
9:51 pm 21:51 Clear 68 20 17 -8.3 14 14 NNW 9 15 29.70 1006 10 16 N/A
10:51 pm 22:51 Clear 68 20 16 -8.9 13 13 NW 12 19 29.70 1006 10 16 N/A
11:51 pm 23:51 Clear 66 18.9 17 -8.3 15 15 NE 3 6 29.72 1006 10 16 N/A

Powered by AerisWeather